Main page
METAR-TAF:

METAR-TAF

Airports :

Aghajari, Iran

latitude: 30-46N, longitude: 049-40E, elevation: 29 m

Current weather observation

The report was made 2 hours and 6 minutes ago, at 11:00 UTC
Wind 8 kt from the Northwest
Temperature 21°C
Humidity 73%
Pressure 1018 hPa
Visibility: 3000 m
haze

METAR: OIAG 211100Z 31008KT 3000 HZ NSC 21/16 Q1018

Time: 16:36 (13:06 UTC)


TAF: missing

Weather observations and forecasts of more than 4000 airports (METAR and TAF reports).

The available stations are represented by yellow and red dots on the map.

Hover mouse over dot to see the name of the station.

Then click to see weather observations and forecasts.

To change the map : click on the green buttons with a black cross to zoom in, on the green button with a dash to zoom out, or on the green arrows for adjacent maps.


METAR-TAF: